KA2QBS Weather Reports


time (UTC)temp
C
wind
direction
speed
KPH
gust
KPH
rain 1hr
cm
rain 24hr
cm
rain mn
cm
humidity
%
barometer
mb
20260510044518 11 281 0.0 11.3 0.00 0.00 0.00 94 1011.5
20260510043014 10 262 1.6 9.7 0.00 0.00 0.00 97 1011.1
20260510041510 10 234 4.8 17.7 0.00 0.00 0.00 97 1011.2
20260510040008 10 157 0.0 0.0 0.00 0.00 0.00 97 1010.7
20260510034508 10 158 0.0 0.0 0.00 0.00 0.00 97 1010.5
20260510033007 9 157 0.0 8.0 0.00 0.00 0.00 97 1010.2
20260510031506 9 127 3.2 8.0 0.00 0.00 0.00 98 1010.3
20260510030006 9 140 0.0 0.0 0.00 0.00 0.00 97 1010.6
20260510024506 9 140 0.0 0.0 0.00 0.00 0.00 96 1010.3
20260510023005 9 140 0.0 0.0 0.00 0.00 0.00 96 1010.2
20260510021505 9 140 0.0 6.4 0.00 0.00 0.00 96 1010.1
20260510020005 9 143 0.0 0.0 0.00 0.00 0.00 96 1010.6
20260510014504 9 143 0.0 0.0 0.00 0.00 0.00 95 1010.3
20260510013003 10 130 1.6 11.3 0.00 0.00 0.00 96 1010.0
20260510011503 10 168 0.0 4.8 0.00 0.00 0.00 96 1010.3
20260510010003 10 202 0.0 0.0 0.00 0.00 0.00 95 1010.2
20260510004502 10 201 0.0 6.4 0.00 0.00 0.00 94 1009.9
20260510003002 10 120 4.8 14.5 0.00 0.00 0.00 93 1009.7
20260510001501 10 150 4.8 14.5 0.00 0.00 0.00 93 1009.5
20260510000000 11 140 1.6 11.3 0.00 0.00 0.00 93 1009.6
20260509234501 11 124 3.2 11.3 0.00 0.00 0.00 94 1009.7
20260509233100 11 150 0.0 0.0 0.00 0.00 0.00 95 1009.8
20260509231623 11 151 0.0 8.0 0.00 0.00 0.00 94 1009.7
20260509230108 11 145 1.6 8.0 0.00 0.00 0.00 94 1009.7
20260509224559 11 130 0.0 1.6 0.00 0.00 0.00 93 1009.4
20260509223110 11 130 1.6 11.3 0.00 0.00 0.00 93 1009.3
20260509221614 11 130 4.8 11.3 0.00 0.00 0.00 94 1009.5
20260509220055 11 132 6.4 11.3 0.00 0.00 0.00 95 1009.4
20260509214602 11 121 3.2 11.3 0.00 0.00 0.00 95 1009.6
20260509213053 11 157 0.0 9.7 0.00 0.00 0.00 96 1009.7
20260509211552 10 136 1.6 9.7 0.00 0.00 0.00 97 1009.6
20260509210050 10 128 3.2 11.3 0.00 0.00 0.00 97 1010.0
20260509204545 10 142 0.0 3.2 0.00 0.00 0.00 97 1010.1
20260509203045 10 142 0.0 0.0 0.00 0.00 0.00 97 1010.2
20260509201544 10 142 0.0 0.0 0.00 0.00 0.00 97 1010.3
20260509200047 10 142 0.0 6.4 0.00 0.00 0.00 97 1010.3
20260509194550 9 132 3.2 9.7 0.00 0.00 0.00 98 1010.4
20260509193040 9 155 1.6 9.7 0.00 0.00 0.00 97 1010.7
20260509191537 9 146 0.0 0.0 0.00 0.00 0.00 97 1010.9
20260509190035 8 146 0.0 0.0 0.00 0.00 0.00 97 1011.0
20260509184536 8 146 0.0 3.2 0.00 0.00 0.00 97 1011.0
20260509183043 8 145 0.0 0.0 0.00 0.00 0.00 97 1011.0
20260509181530 8 156 0.0 8.0 0.00 0.00 0.00 96 1011.2
20260509180028 8 155 0.0 4.8 0.00 0.00 0.00 97 1011.2
20260509174541 8 154 0.0 6.4 0.00 0.00 0.00 96 1011.1
20260509173026 8 146 0.0 8.0 0.00 0.00 0.00 96 1011.2
20260509171534 8 167 0.0 6.4 0.00 0.00 0.00 96 1011.5
20260509170025 8 161 0.0 6.4 0.00 0.00 0.00 96 1011.5
20260509164523 8 152 0.0 8.0 0.00 0.00 0.00 95 1011.7
20260509163032 7 141 0.0 11.3 0.00 0.00 0.00 96 1011.9
20260509161526 7 141 3.2 9.7 0.00 0.00 0.00 95 1012.0
20260509160017 7 174 0.0 8.0 0.00 0.00 0.00 95 1012.3
20260509154515 7 136 0.0 11.3 0.00 0.00 0.00 95 1012.6
20260509153021 7 140 3.2 9.7 0.00 0.00 0.00 96 1012.8
20260509151512 7 180 0.0 4.8 0.00 0.00 0.00 96 1012.9
20260509150021 7 159 0.0 4.8 0.00 0.00 0.00 96 1012.9
20260509144508 7 163 0.0 4.8 0.00 0.00 0.00 95 1013.0
20260509143008 7 160 0.0 6.4 0.00 0.00 0.00 96 1013.0
20260509141505 6 176 0.0 0.0 0.00 0.00 0.00 95 1013.0
20260509140006 6 176 0.0 3.2 0.00 0.00 0.00 94 1013.0
20260509134504 6 170 0.0 0.0 0.00 0.00 0.00 94 1013.1
20260509133005 6 169 0.0 0.0 0.00 0.00 0.00 93 1013.2
20260509131502 6 168 0.0 0.0 0.00 0.00 0.00 93 1013.0
20260509130002 5 165 0.0 8.0 0.00 0.00 0.00 92 1013.0
20260509124501 5 171 0.0 12.9 0.00 0.00 0.00 88 1013.1
20260509123124 6 159 0.0 0.0 0.00 0.00 0.00 85 1013.5
20260509121601 6 159 0.0 6.4 0.00 0.00 0.00 82 1013.6
20260509120101 6 157 1.6 11.3 0.00 0.00 0.00 77 1013.2
20260509114559 6 166 1.6 9.7 0.00 0.00 0.00 76 1013.5
20260509113103 6 155 1.6 14.5 0.00 0.00 0.00 76 1013.6
20260509111553 5 149 3.2 14.5 0.00 0.00 0.00 78 1013.5
20260509110052 5 297 0.0 0.0 0.00 0.00 0.00 79 1013.6
20260509104551 5 298 0.0 0.0 0.00 0.00 0.00 78 1013.5
20260509103058 5 163 0.0 14.5 0.00 0.00 0.00 76 1013.5
20260509101546 4 159 1.6 9.7 0.00 0.00 0.00 77 1013.2
20260509100051 3 145 0.0 8.0 0.00 0.00 0.00 77 1012.9
20260509094545 3 111 0.0 0.0 0.00 0.00 0.00 77 1013.1
20260509093044 3 111 1.6 4.8 0.00 0.00 0.00 76 1013.3
20260509091540 3 104 0.0 0.0 0.00 0.00 0.00 76 1013.5
20260509090047 3 104 0.0 0.0 0.00 0.00 0.00 77 1013.5
20260509084538 3 104 0.0 0.0 0.00 0.00 0.00 76 1013.6
20260509083035 3 103 0.0 8.0 0.00 0.00 0.00 76 1013.6
20260509081534 3 84 0.0 1.6 0.00 0.00 0.00 79 1013.7
20260509080033 3 80 0.0 4.8 0.00 0.00 0.00 78 1013.7
20260509074534 3 71 0.0 0.0 0.00 0.00 0.00 79 1013.7
20260509073035 3 71 0.0 1.6 0.00 0.00 0.00 80 1013.7
20260509071532 3 70 1.6 4.8 0.00 0.00 0.00 78 1013.7
20260509070031 3 63 0.0 0.0 0.00 0.00 0.00 78 1013.7
20260509064530 2 52 0.0 0.0 0.00 0.00 0.00 83 1013.7
20260509063028 2 51 0.0 0.0 0.00 0.00 0.00 83 1013.8
20260509061528 2 51 0.0 0.0 0.00 0.00 0.00 83 1014.1
20260509060030 1 51 0.0 0.0 0.00 0.00 0.00 86 1014.2
20260509054522 1 51 0.0 0.0 0.00 0.00 0.00 85 1014.5
20260509053021 2 51 0.0 1.6 0.00 0.00 0.00 83 1014.5
20260509051518 1 38 0.0 0.0 0.00 0.00 0.00 88 1014.8
20260509050038 1 38 0.0 0.0 0.00 0.00 0.00 88 1014.8